Regional Weather Roundup
Issued by NWS

Home | Current Version | Previous Version | Graphics & Text | Print | Product List | Glossary On
Versions: 1 2 3 4 5 6 7 8 9 10 11 12 13 14 15 16 17 18 19 20 21 22 23 24 25 26 27 28 29 30 31 32 33 34 35 36 37 38 39 40 41 42 43 44 45 46 47 48 49 50
000
ASUS43 KIND 220909
RWRIN

WEATHER ROUNDUP FOR INDIANA
NATIONAL WEATHER SERVICE INDIANAPOLIS IN
500 AM EDT WED OCT 22 2014

NOTE: "FAIR" INDICATES FEW OR NO CLOUDS BELOW 12,000 FEET WITH NO
SIGNIFICANT WEATHER AND/OR OBSTRUCTIONS TO VISIBILITY.

* - STATION DOES NOT REPORT WEATHER SUCH AS PRECIPITATION OR FOG.

+ - STATION NOT QUALITY CONTROLLED BY THE NATIONAL WEATHER SERVICE.
    USE DATA WITH CAUTION...ESPECIALLY DEWPOINT AND RELATIVE
    HUMIDITY OBSERVATIONS.

INZ001>003-010>013-019-020-221000-
NORTHWEST INDIANA

CITY           SKY/WX    TMP DP  RH WIND       PRES   REMARKS
GARY /AIRPORT/ CLEAR     34  33  96 CALM      30.30R
KNOX *+        CLEAR     32  31  95 CALM      30.28R
LA PORTE +     CLEAR     37  37 100 E3        30.30R
MICHIGAN CITY+ CLEAR     32  32 100 CALM      30.30R
MONTICELLO +   CLEAR     37  36  93 CALM      30.27R
RENSSELAER +   CLEAR     37  37 100 CALM      30.29R
VALPARAISO     CLEAR     33  32  96 NE3       30.30R

$$

LMZ046-743>745-221000-
SOUTHERN LAKE MICHIGAN

STATION/POSITION TIME  TEMP WIND        PRES
                       AIR  DIR/SP/G
                 (UTC) (F)  (DEG/KT/KT) (MB)
MICHIGAN CITY    0900   40  110/  8/ 10   N/A

$$

INZ004-005-014>016-021>024-221000-
NORTH CENTRAL INDIANA

CITY           SKY/WX    TMP DP  RH WIND       PRES   REMARKS
GOSHEN         CLEAR     34  32  92 N5        30.28R WCI  30
LOGANSPORT +   CLEAR     36  32  87 N3        30.28R
PERU/GRISSOM   CLEAR     38  38 100 N5        30.26R
ROCHESTER +    CLEAR     37  36  93 CALM      30.28R
SOUTH BEND     CLEAR     34  31  88 CALM      30.30R
WARSAW +       CLEAR     34  34 100 N3        30.28R

$$

INZ006>009-017-018-025>027-221000-
NORTHEAST INDIANA

CITY           SKY/WX    TMP DP  RH WIND       PRES   REMARKS
ANGOLA *+      MOCLDY    36  18  48 N3        30.27R
AUBURN +       CLOUDY    39  34  81 N7        30.27R
FORT WAYNE     PTCLDY    37  34  89 N6        30.27R
HUNTINGTON +   CLEAR     37  35  93 N5        30.26R

$$

INZ028-029-035-036-043>045-051>053-221000-
WEST CENTRAL INDIANA

CITY           SKY/WX    TMP DP  RH WIND       PRES   REMARKS
GREENCASTLE +  CLEAR     37  36  93 N3        30.26R
LAFAYETTE      CLEAR     36  35  96 CALM      30.27R
TERRE HAUTE    CLEAR     38  36  92 NE3       30.26R

$$

INZ030>032-037>040-046>048-054>057-064-065-221000-
CENTRAL INDIANA

CITY           SKY/WX    TMP DP  RH WIND       PRES   REMARKS
CP ATTERBURY + CLEAR     41  36  81 N5        30.24R
FRANKFORT +    CLEAR     38  38 100 NW3       30.28R
GREENWOOD *+   CLEAR     41  34  75 N6        30.25
INDIANAPOLIS   CLEAR     40  34  79 N7        30.24R
-EAGLE CREEK   CLEAR     41  35  79 N3        30.25R
KOKOMO *+      CLEAR     37  34  87 N6        30.27R
MARION +       CLEAR     36  33  89 N5        30.26R
MT COMFORT *+  CLEAR     37  34  87 N5        30.25R
SHELBYVILLE    PTCLDY    41  36  82 N5        30.24R
ZIONSVILLE +   CLEAR     36  33  88 N5        30.26R

$$

INZ033-034-041-042-049-050-058-059-221000-
EAST CENTRAL INDIANA

CITY           SKY/WX    TMP DP  RH WIND       PRES   REMARKS
MUNCIE         CLOUDY    43  37  79 N5        30.25R

$$

INZ060-061-067>069-081>083-085>088-221000-
SOUTHWEST INDIANA

CITY           SKY/WX    TMP DP  RH WIND       PRES   REMARKS
EVANSVILLE     CLEAR     44  41  89 N7        30.22S
HUNTINGBURG *+ CLEAR     41  37  87 NE5       30.23R
WASHINGTON +   CLEAR     40  40 100 CALM      30.24R

$$

INZ062-063-066-070>080-084-089>092-221000-
SOUTH CENTRAL AND SOUTHEAST INDIANA

CITY           SKY/WX    TMP DP  RH WIND       PRES   REMARKS
BLOOMINGTON    CLEAR     38  37  97 CALM      30.24R
NORTH VERNON + CLOUDY    45  45 100 N5        30.23
SEYMOUR +      PTCLDY    43  41  93 NE3       30.23R

$$




USA.gov is the U.S. government's official web portal to all federal, state and local government web resources and services.